| time (UTC) | temp F | wind direction | speed knots | gust knots | rain 1hr in | rain 24hr in | rain mn in | humidity % | barometer mb |
| 20260508012736 | 53 | 120 | 1.7 | 2.6 | 0.00 | 0.00 | 0.00 | 100 | |
| 20260508012236 | 53 | 120 | 1.7 | 2.6 | 0.00 | 0.00 | 0.00 | 100 | |
| 20260508011736 | 53 | 120 | 3.5 | 3.5 | 0.00 | 0.00 | 0.00 | 100 | |
| 20260508011236 | 53 | 115 | 2.6 | 3.5 | 0.00 | 0.00 | 0.00 | 100 | |
| 20260508010735 | 53 | 115 | 2.6 | 3.5 | 0.00 | 0.00 | 0.00 | 100 | |
| 20260508010235 | 53 | 115 | 3.5 | 4.3 | 0.00 | 0.00 | 0.00 | 100 | |
| 20260508005735 | 53 | 115 | 3.5 | 4.3 | 0.00 | 0.00 | 0.00 | 100 | |
| 20260508005235 | 53 | 115 | 4.3 | 5.2 | 0.00 | 0.00 | 0.00 | 100 | |
| 20260508004734 | 53 | 117 | 3.5 | 3.5 | 0.00 | 0.00 | 0.00 | 100 | |
| 20260508004234 | 53 | 120 | 1.7 | 1.7 | 0.00 | 0.00 | 0.00 | 100 | |
| 20260508003734 | 53 | 120 | 1.7 | 2.6 | 0.00 | 0.00 | 0.00 | 100 | |
| 20260508003234 | 53 | 120 | 2.6 | 2.6 | 0.00 | 0.00 | 0.00 | 100 | |
| 20260508002734 | 53 | 124 | 2.6 | 2.6 | 0.00 | 0.00 | 0.00 | 100 | |
| 20260508002234 | 53 | 118 | 1.7 | 2.6 | 0.00 | 0.00 | 0.00 | 100 | |
| 20260508001733 | 53 | 115 | 1.7 | 1.7 | 0.00 | 0.00 | 0.00 | 100 | |
| 20260508001233 | 53 | 115 | 1.7 | 1.7 | 0.00 | 0.00 | 0.00 | 100 | |
| 20260508000733 | 53 | 115 | 1.7 | 1.7 | 0.00 | 0.00 | 0.00 | 100 | |
| 20260508000234 | 53 | 113 | 3.5 | 4.3 | 0.00 | 0.00 | 0.00 | 100 | |
| 20260507235733 | 54 | 110 | 5.2 | 6.1 | 0.00 | 0.00 | 0.00 | 100 | |
| 20260507235232 | 54 | 118 | 4.3 | 4.3 | 0.00 | 0.00 | 0.00 | 100 | |
| 20260507234732 | 53 | 130 | 2.6 | 3.5 | 0.00 | 0.00 | 0.00 | 100 | |
| 20260507234222 | 53 | 149 | 1.7 | 1.7 | 0.00 | 0.00 | 0.00 | 100 | |
| 20260507233722 | 53 | 149 | 1.7 | 2.6 | 0.00 | 0.00 | 0.00 | 100 | |
| 20260507233222 | 53 | 149 | 1.7 | 1.7 | 0.00 | 0.00 | 0.00 | 100 | |
| 20260507232722 | 53 | 145 | 1.7 | 2.6 | 0.00 | 0.00 | 0.00 | 100 | |
| 20260507232221 | 53 | 147 | 1.7 | 3.5 | 0.00 | 0.00 | 0.00 | 100 | |
| 20260507231721 | 53 | 141 | 1.7 | 1.7 | 0.00 | 0.00 | 0.00 | 100 | |
| 20260507231221 | 54 | 138 | 1.7 | 4.3 | 0.00 | 0.00 | 0.00 | 100 | |
| 20260507230720 | 54 | 129 | 3.5 | 6.1 | 0.00 | 0.00 | 0.00 | 100 | |
| 20260507230220 | 54 | 128 | 5.2 | 6.1 | 0.00 | 0.00 | 0.00 | 100 | |
| 20260507225720 | 54 | 131 | 3.5 | 5.2 | 0.00 | 0.00 | 0.00 | 100 | |
| 20260507225220 | 53 | 143 | 1.7 | 2.6 | 0.00 | 0.00 | 0.00 | 100 | |
| 20260507224720 | 53 | 156 | 2.6 | 3.5 | 0.00 | 0.00 | 0.00 | 100 | |
| 20260507224219 | 53 | 161 | 3.5 | 4.3 | 0.00 | 0.00 | 0.00 | 100 | |
| 20260507223719 | 53 | 139 | 3.5 | 4.3 | 0.00 | 0.00 | 0.00 | 100 | |
| 20260507223219 | 53 | 135 | 3.5 | 7.0 | 0.00 | 0.00 | 0.00 | 100 | |
| 20260507222719 | 54 | 138 | 2.6 | 3.5 | 0.00 | 0.00 | 0.00 | 100 | |
| 20260507222219 | 54 | 124 | 3.5 | 7.0 | 0.00 | 0.00 | 0.00 | 100 | |
| 20260507221719 | 54 | 117 | 7.0 | 7.8 | 0.00 | 0.00 | 0.00 | 100 | |
| 20260507220716 | 53 | 270 | 3.5 | 7.8 | 0.00 | 0.00 | 0.00 | 100 | |
| 20260507215151 | 53 | 262 | 1.7 | 2.6 | 0.00 | 0.00 | 0.00 | 100 | |
| 20260507214650 | 53 | 173 | 1.7 | 2.6 | 0.00 | 0.00 | 0.00 | 100 | |
| 20260507214150 | 53 | 214 | 1.7 | 1.7 | 0.00 | 0.00 | 0.00 | 100 | |
| 20260507213650 | 53 | 214 | 1.7 | 1.7 | 0.00 | 0.00 | 0.00 | 100 | |
| 20260507213150 | 52 | 214 | 1.7 | 1.7 | 0.00 | 0.00 | 0.00 | 100 | |
| 20260507212018 | 52 | 173 | 1.7 | 1.7 | 0.00 | 0.00 | 0.00 | 100 | |
| 20260507211517 | 52 | 173 | 1.7 | 1.7 | 0.00 | 0.00 | 0.00 | 100 | |
| 20260507211017 | 52 | 173 | 1.7 | 1.7 | 0.00 | 0.00 | 0.00 | 100 | |
| 20260507210517 | 52 | 173 | 1.7 | 1.7 | 0.00 | 0.00 | 0.00 | 100 | |
| 20260507210017 | 52 | 173 | 1.7 | 2.6 | 0.00 | 0.00 | 0.00 | 100 | |
| 20260507205517 | 52 | 193 | 1.7 | 2.6 | 0.00 | 0.00 | 0.00 | 100 | |
| 20260507205017 | 52 | 196 | 1.7 | 1.7 | 0.00 | 0.00 | 0.00 | 100 | |
| 20260507204516 | 52 | 196 | 1.7 | 1.7 | 0.00 | 0.00 | 0.00 | 100 | |
| 20260507203516 | 52 | 196 | 1.7 | 1.7 | 0.00 | 0.00 | 0.00 | 100 | |
| 20260507203016 | 52 | 196 | 1.7 | 1.7 | 0.00 | 0.00 | 0.00 | 100 | |
| 20260507202505 | 52 | 196 | 1.7 | 1.7 | 0.00 | 0.00 | 0.00 | 100 | |
| 20260507202006 | 52 | 196 | 1.7 | 1.7 | 0.00 | 0.00 | 0.00 | 100 | |
| 20260507201505 | 52 | 196 | 1.7 | 1.7 | 0.00 | 0.00 | 0.00 | 100 | |
| 20260507201005 | 52 | 196 | 1.7 | 1.7 | 0.00 | 0.00 | 0.00 | 100 | |
| 20260507200505 | 52 | 206 | 2.6 | 3.5 | 0.00 | 0.00 | 0.00 | 100 | |
| 20260507200001 | 52 | 147 | 2.6 | 4.3 | 0.00 | 0.00 | 0.00 | 100 | |
| 20260507195501 | 52 | 195 | 1.7 | 2.6 | 0.00 | 0.00 | 0.00 | 100 | |
| 20260507195001 | 52 | 198 | 1.7 | 2.6 | 0.00 | 0.00 | 0.00 | 100 | |
| 20260507194501 | 52 | 221 | 1.7 | 2.6 | 0.00 | 0.00 | 0.00 | 100 | |
| 20260507194000 | 52 | 115 | 0.9 | 0.9 | 0.00 | 0.00 | 0.00 | 100 | |
| 20260507193500 | 52 | 115 | 0.9 | 0.9 | 0.00 | 0.00 | 0.00 | 100 | |
| 20260507192959 | 52 | 115 | 0.9 | 0.9 | 0.00 | 0.00 | 0.00 | 100 | |
| 20260507192459 | 53 | 115 | 0.9 | 0.9 | 0.00 | 0.00 | 0.00 | 100 | |
| 20260507191959 | 53 | 115 | 0.9 | 0.9 | 0.00 | 0.00 | 0.00 | 100 | |
| 20260507191459 | 53 | 115 | 0.9 | 0.9 | 0.00 | 0.00 | 0.00 | 100 | |
| 20260507190959 | 53 | 115 | 1.7 | 1.7 | 0.00 | 0.00 | 0.00 | 100 | |
| 20260507190459 | 54 | 115 | 1.7 | 1.7 | 0.00 | 0.00 | 0.00 | 100 | |
| 20260507185958 | 54 | 115 | 2.6 | 2.6 | 0.00 | 0.00 | 0.00 | 100 | |
| 20260507185458 | 54 | 120 | 2.6 | 3.5 | 0.00 | 0.00 | 0.00 | 100 | |
| 20260507184958 | 54 | 120 | 2.6 | 3.5 | 0.00 | 0.00 | 0.00 | 100 | |
| 20260507184458 | 54 | 115 | 3.5 | 3.5 | 0.00 | 0.00 | 0.00 | 100 | |
| 20260507183457 | 55 | 120 | 3.5 | 4.3 | 0.00 | 0.00 | 0.00 | 100 | |
| 20260507182957 | 55 | 120 | 3.5 | 3.5 | 0.00 | 0.00 | 0.00 | 100 | |
| 20260507182457 | 55 | 115 | 3.5 | 3.5 | 0.00 | 0.00 | 0.00 | 100 | |
| 20260507181957 | 55 | 115 | 4.3 | 5.2 | 0.00 | 0.00 | 0.00 | 100 | |
| 20260507181456 | 55 | 116 | 3.5 | 4.3 | 0.00 | 0.00 | 0.00 | 100 | |
| 20260507180953 | 55 | 119 | 3.5 | 4.3 | 0.00 | 0.00 | 0.00 | 100 | |
| 20260507180453 | 55 | 119 | 4.3 | 5.2 | 0.00 | 0.00 | 0.00 | 100 | |
| 20260507175953 | 55 | 115 | 4.3 | 4.3 | 0.00 | 0.00 | 0.00 | 100 | |
| 20260507175453 | 55 | 111 | 3.5 | 4.3 | 0.00 | 0.00 | 0.00 | 100 | |
| 20260507174940 | 55 | 115 | 3.5 | 3.5 | 0.00 | 0.00 | 0.00 | 100 | |
| 20260507174439 | 54 | 115 | 4.3 | 5.2 | 0.00 | 0.00 | 0.00 | 100 | |
| 20260507173939 | 54 | 115 | 4.3 | 5.2 | 0.00 | 0.00 | 0.00 | 100 | |
| 20260507173439 | 55 | 114 | 3.5 | 4.3 | 0.00 | 0.00 | 0.00 | 100 | |
| 20260507172939 | 55 | 115 | 2.6 | 3.5 | 0.00 | 0.00 | 0.00 | 100 | |
| 20260507172438 | 55 | 116 | 2.6 | 4.3 | 0.00 | 0.00 | 0.00 | 100 | |
| 20260507171938 | 55 | 115 | 3.5 | 3.5 | 0.00 | 0.00 | 0.00 | 100 | |
| 20260507171438 | 55 | 117 | 2.6 | 3.5 | 0.00 | 0.00 | 0.00 | 100 | |
| 20260507170938 | 55 | 118 | 3.5 | 5.2 | 0.00 | 0.00 | 0.00 | 100 | |
| 20260507170438 | 55 | 120 | 4.3 | 4.3 | 0.00 | 0.00 | 0.00 | 100 | |
| 20260507165938 | 55 | 117 | 5.2 | 6.1 | 0.00 | 0.00 | 0.00 | 100 | |
| 20260507165437 | 55 | 115 | 3.5 | 4.3 | 0.00 | 0.00 | 0.00 | 100 | |
| 20260507164937 | 55 | 120 | 4.3 | 4.3 | 0.00 | 0.00 | 0.00 | 100 | |
| 20260507164437 | 56 | 116 | 4.3 | 5.2 | 0.00 | 0.00 | 0.00 | 100 | |
| 20260507163937 | 56 | 120 | 4.3 | 5.2 | 0.00 | 0.00 | 0.00 | 100 | |
| 20260507163436 | 55 | 115 | 4.3 | 5.2 | 0.00 | 0.00 | 0.00 | 100 | |
| 20260507162936 | 55 | 153 | 2.6 | 3.5 | 0.00 | 0.00 | 0.00 | 100 | |
| 20260507162436 | 55 | 196 | 1.7 | 1.7 | 0.00 | 0.00 | 0.00 | 100 | |
| 20260507161932 | 55 | 190 | 1.7 | 1.7 | 0.00 | 0.00 | 0.00 | 100 | |
| 20260507161432 | 55 | 182 | 3.5 | 4.3 | 0.00 | 0.00 | 0.00 | 100 | |
| 20260507160932 | 57 | 184 | 3.5 | 5.2 | 0.00 | 0.00 | 0.00 | 100 | |
| 20260507160432 | 56 | 188 | 5.2 | 10.4 | 0.00 | 0.00 | 0.00 | 100 | |
| 20260507155931 | 55 | 200 | 2.6 | 6.1 | 0.00 | 0.00 | 0.00 | 100 | |
| 20260507155431 | 56 | 103 | 3.5 | 6.1 | 0.00 | 0.00 | 0.00 | 100 | |
| 20260507154929 | 56 | 104 | 4.3 | 5.2 | 0.00 | 0.00 | 0.00 | 100 | |
| 20260507154429 | 56 | 50 | 4.3 | 5.2 | 0.00 | 0.00 | 0.00 | 100 | |
| 20260507153927 | 55 | 259 | 3.5 | 4.3 | 0.00 | 0.00 | 0.00 | 100 | |
| 20260507153427 | 55 | 278 | 4.3 | 7.0 | 0.00 | 0.00 | 0.00 | 100 | |
| 20260507152923 | 56 | 229 | 6.1 | 20.0 | 0.00 | 0.00 | 0.00 | 100 | |
| 20260507152421 | 56 | 220 | 5.2 | 7.0 | 0.00 | 0.00 | 0.00 | 100 | |
| 20260507151920 | 57 | 229 | 4.3 | 6.1 | 0.00 | 0.00 | 0.00 | 100 | |
| 20260507151411 | 57 | 199 | 2.6 | 5.2 | 0.00 | 0.00 | 0.00 | 100 | |
| 20260507150910 | 57 | 215 | 4.3 | 5.2 | 0.00 | 0.00 | 0.00 | 100 | |
| 20260507150410 | 57 | 220 | 1.7 | 1.7 | 0.00 | 0.00 | 0.00 | 100 | |
| 20260507145910 | 57 | 88 | 1.7 | 1.7 | 0.00 | 0.00 | 0.00 | 100 | |
| 20260507145410 | 57 | 113 | 3.5 | 5.2 | 0.00 | 0.00 | 0.00 | 100 | |
| 20260507144910 | 57 | 107 | 5.2 | 5.2 | 0.00 | 0.00 | 0.00 | 100 | |
| 20260507144409 | 57 | 115 | 4.3 | 5.2 | 0.00 | 0.00 | 0.00 | 100 | |
| 20260507143909 | 57 | 130 | 2.6 | 3.5 | 0.00 | 0.00 | 0.00 | 100 | |
| 20260507143407 | 57 | 53 | 4.3 | 13.0 | 0.00 | 0.00 | 0.00 | 100 | |
| 20260507142858 | 57 | 98 | 4.3 | 5.2 | 0.00 | 0.00 | 0.00 | 100 | |
| 20260507142358 | 57 | 128 | 6.1 | 7.8 | 0.00 | 0.00 | 0.00 | 100 | |
| 20260507141858 | 57 | 120 | 7.0 | 7.8 | 0.00 | 0.00 | 0.00 | 100 | |
| 20260507141357 | 57 | 120 | 7.8 | 8.7 | 0.00 | 0.00 | 0.00 | 100 | |
| 20260507140857 | 57 | 115 | 5.2 | 6.1 | 0.00 | 0.00 | 0.00 | 100 | |
| 20260507140357 | 57 | 115 | 6.1 | 7.0 | 0.00 | 0.00 | 0.00 | 100 | |
| 20260507135356 | 58 | 107 | 2.6 | 4.3 | 0.00 | 0.00 | 0.00 | 100 | |
| 20260507134856 | 59 | 105 | 1.7 | 3.5 | 0.00 | 0.00 | 0.00 | 100 | |
| 20260507134356 | 59 | 111 | 1.7 | 2.6 | 0.00 | 0.00 | 0.00 | 100 | |
| 20260507133856 | 59 | 110 | 2.6 | 3.5 | 0.00 | 0.00 | 0.00 | 100 | |
| 20260507133356 | 59 | 105 | 6.1 | 7.0 | 0.00 | 0.00 | 0.00 | 100 | |
| 20260507132856 | 60 | 106 | 5.2 | 7.8 | 0.00 | 0.00 | 0.00 | 100 | |
| 20260507131355 | 60 | 142 | 1.7 | 2.6 | 0.00 | 0.00 | 0.00 | 100 | |
| 20260507130855 | 60 | 205 | 1.7 | 1.7 | 0.00 | 0.00 | 0.00 | 100 | |
| 20260507130355 | 60 | 274 | 2.6 | 4.3 | 0.00 | 0.00 | 0.00 | 100 | |
| 20260507125351 | 61 | 234 | 4.3 | 7.8 | 0.00 | 0.00 | 0.00 | 100 | |
| 20260507124850 | 61 | 208 | 3.5 | 6.1 | 0.00 | 0.00 | 0.00 | 100 | |
| 20260507123834 | 63 | 147 | 2.6 | 3.5 | 0.00 | 0.00 | 0.00 | 100 | |
| 20260507123334 | 62 | 102 | 1.7 | 1.7 | 0.00 | 0.00 | 0.00 | 100 | |
| 20260507122834 | 61 | 102 | 1.7 | 2.6 | 0.00 | 0.00 | 0.00 | 100 | |
| 20260507122333 | 62 | 97 | 2.6 | 3.5 | 0.00 | 0.00 | 0.00 | 100 | |
| 20260507121833 | 62 | 92 | 2.6 | 3.5 | 0.00 | 0.00 | 0.00 | 100 | |
| 20260507121333 | 62 | 91 | 2.6 | 3.5 | 0.00 | 0.00 | 0.00 | 100 | |
| 20260507120833 | 62 | 4 | 3.5 | 4.3 | 0.00 | 0.00 | 0.00 | 100 | |
| 20260507115830 | 62 | 267 | 1.7 | 2.6 | 0.00 | 0.00 | 0.00 | 100 | |
| 20260507115330 | 61 | 90 | 1.7 | 1.7 | 0.00 | 0.00 | 0.00 | 100 | |
| 20260507114829 | 59 | 91 | 1.7 | 2.6 | 0.00 | 0.00 | 0.00 | 100 | |
| 20260507114329 | 59 | 94 | 3.5 | 5.2 | 0.00 | 0.00 | 0.00 | 100 | |
| 20260507113829 | 61 | 91 | 2.6 | 3.5 | 0.00 | 0.00 | 0.00 | 100 | |
| 20260507113329 | 62 | 87 | 3.5 | 4.3 | 0.00 | 0.00 | 0.00 | 100 | |
| 20260507112829 | 62 | 91 | 3.5 | 5.2 | 0.00 | 0.00 | 0.00 | 100 | |
| 20260507112327 | 62 | 264 | 3.5 | 5.2 | 0.00 | 0.00 | 0.00 | 100 | |
| 20260507111819 | 62 | 221 | 3.5 | 6.1 | 0.00 | 0.00 | 0.00 | 100 | |
| 20260507110815 | 64 | 186 | 4.3 | 7.0 | 0.00 | 0.00 | 0.00 | 100 | |
| 20260507110314 | 64 | 213 | 2.6 | 5.2 | 0.00 | 0.00 | 0.00 | 100 | |
| 20260507105813 | 64 | 194 | 4.3 | 7.0 | 0.00 | 0.00 | 0.00 | 100 | |
| 20260507105312 | 65 | 197 | 3.5 | 6.1 | 0.00 | 0.00 | 0.00 | 100 | |
| 20260507104809 | 65 | 202 | 5.2 | 8.7 | 0.00 | 0.00 | 0.00 | 100 | |
| 20260507104309 | 65 | 184 | 3.5 | 5.2 | 0.00 | 0.00 | 0.00 | 100 | |
| 20260507103808 | 66 | 182 | 3.5 | 5.2 | 0.00 | 0.00 | 0.00 | 100 | |
| 20260507103308 | 66 | 191 | 4.3 | 6.1 | 0.00 | 0.00 | 0.00 | 100 | |
| 20260507102808 | 66 | 97 | 2.6 | 2.6 | 0.00 | 0.00 | 0.00 | 100 | |
| 20260507102307 | 66 | 115 | 1.7 | 1.7 | 0.00 | 0.00 | 0.00 | 100 | |
| 20260507101807 | 66 | 151 | 1.7 | 2.6 | 0.00 | 0.00 | 0.00 | 100 | |
| 20260507101307 | 66 | 168 | 1.7 | 2.6 | 0.00 | 0.00 | 0.00 | 100 | |
| 20260507100807 | 66 | 151 | 5.2 | 8.7 | 0.00 | 0.00 | 0.00 | 100 | |
| 20260507100256 | 66 | 125 | 1.7 | 4.3 | 0.00 | 0.00 | 0.00 | 100 | |
| 20260507095756 | 66 | 135 | 6.1 | 9.6 | 0.00 | 0.00 | 0.00 | 100 | |
| 20260507095256 | 66 | 120 | 4.3 | 7.0 | 0.00 | 0.00 | 0.00 | 100 | |
| 20260507094756 | 66 | 120 | 3.5 | 6.1 | 0.00 | 0.00 | 0.00 | 100 | |
| 20260507093754 | 67 | 126 | 5.2 | 8.7 | 0.00 | 0.00 | 0.00 | 100 | |
| 20260507093254 | 66 | 135 | 7.0 | 9.6 | 0.00 | 0.00 | 0.00 | 100 | |
| 20260507092754 | 66 | 127 | 7.0 | 9.6 | 0.00 | 0.00 | 0.00 | 100 | |
| 20260507091753 | 66 | 140 | 7.0 | 9.6 | 0.00 | 0.00 | 0.00 | 100 | |
| 20260507091253 | 66 | 131 | 8.7 | 11.3 | 0.00 | 0.00 | 0.00 | 100 | |
| 20260507090753 | 66 | 125 | 5.2 | 10.4 | 0.00 | 0.00 | 0.00 | 100 | |
| 20260507090253 | 65 | 125 | 6.1 | 10.4 | 0.00 | 0.00 | 0.00 | 100 | |
| 20260507085749 | 65 | 124 | 6.1 | 10.4 | 0.00 | 0.00 | 0.00 | 100 | |
| 20260507085249 | 65 | 138 | 5.2 | 7.0 | 0.00 | 0.00 | 0.00 | 100 | |
| 20260507084749 | 64 | 122 | 3.5 | 6.1 | 0.00 | 0.00 | 0.00 | 100 | |
| 20260507084249 | 64 | 119 | 2.6 | 5.2 | 0.00 | 0.00 | 0.00 | 100 | |
| 20260507083749 | 65 | 122 | 4.3 | 7.8 | 0.00 | 0.00 | 0.00 | 100 | |
| 20260507083249 | 65 | 137 | 5.2 | 8.7 | 0.00 | 0.00 | 0.00 | 100 | |
| 20260507082748 | 65 | 136 | 4.3 | 5.2 | 0.00 | 0.00 | 0.00 | 100 | |
| 20260507082248 | 64 | 131 | 6.1 | 8.7 | 0.00 | 0.00 | 0.00 | 100 | |
| 20260507081748 | 64 | 145 | 6.1 | 10.4 | 0.00 | 0.00 | 0.00 | 100 | |
| 20260507081248 | 64 | 131 | 6.1 | 8.7 | 0.00 | 0.00 | 0.00 | 100 | |
| 20260507080748 | 64 | 134 | 2.6 | 3.5 | 0.00 | 0.00 | 0.00 | 100 | |
| 20260507080247 | 64 | 139 | 5.2 | 10.4 | 0.00 | 0.00 | 0.00 | 100 | |
| 20260507075747 | 64 | 135 | 7.8 | 12.2 | 0.00 | 0.00 | 0.00 | 100 | |
| 20260507075247 | 64 | 141 | 5.2 | 8.7 | 0.00 | 0.00 | 0.00 | 100 | |
| 20260507074247 | 64 | 137 | 7.0 | 10.4 | 0.00 | 0.00 | 0.00 | 100 | |
| 20260507073747 | 64 | 140 | 5.2 | 9.6 | 0.00 | 0.00 | 0.00 | 100 | |
| 20260507073246 | 64 | 149 | 6.1 | 9.6 | 0.00 | 0.00 | 0.00 | 100 | |
| 20260507072733 | 64 | 133 | 6.1 | 7.8 | 0.00 | 0.00 | 0.00 | 100 | |
| 20260507072233 | 64 | 131 | 4.3 | 7.0 | 0.00 | 0.00 | 0.00 | 100 | |
| 20260507071733 | 63 | 122 | 4.3 | 6.1 | 0.00 | 0.00 | 0.00 | 100 | |
| 20260507071232 | 64 | 125 | 6.1 | 13.0 | 0.00 | 0.00 | 0.00 | 100 | |
| 20260507070728 | 64 | 119 | 7.8 | 15.6 | 0.00 | 0.00 | 0.00 | 100 | |
| 20260507070228 | 64 | 122 | 8.7 | 13.0 | 0.00 | 0.00 | 0.00 | 100 | |
| 20260507065728 | 64 | 119 | 4.3 | 6.1 | 0.00 | 0.00 | 0.00 | 100 | |
| 20260507065228 | 64 | 140 | 5.2 | 7.0 | 0.00 | 0.00 | 0.00 | 100 | |
| 20260507064728 | 64 | 136 | 4.3 | 6.1 | 0.00 | 0.00 | 0.00 | 100 | |
| 20260507064227 | 64 | 133 | 3.5 | 6.1 | 0.00 | 0.00 | 0.00 | 100 | |
| 20260507063726 | 64 | 145 | 6.1 | 8.7 | 0.00 | 0.00 | 0.00 | 100 | |
| 20260507063226 | 64 | 126 | 3.5 | 7.0 | 0.00 | 0.00 | 0.00 | 100 | |
| 20260507062726 | 63 | 135 | 3.5 | 6.1 | 0.00 | 0.00 | 0.00 | 100 | |
| 20260507062226 | 63 | 127 | 3.5 | 7.0 | 0.00 | 0.00 | 0.00 | 100 | |
| 20260507061725 | 64 | 132 | 5.2 | 7.8 | 0.00 | 0.00 | 0.00 | 100 | |
| 20260507061225 | 63 | 127 | 7.0 | 13.9 | 0.00 | 0.00 | 0.00 | 100 | |
| 20260507060725 | 63 | 131 | 4.3 | 8.7 | 0.00 | 0.00 | 0.00 | 100 | |
| 20260507060225 | 63 | 136 | 5.2 | 7.8 | 0.00 | 0.00 | 0.00 | 100 | |
| 20260507055724 | 62 | 144 | 8.7 | 14.8 | 0.00 | 0.00 | 0.00 | 100 | |
| 20260507055224 | 62 | 139 | 5.2 | 7.0 | 0.00 | 0.00 | 0.00 | 100 | |
| 20260507054724 | 62 | 142 | 8.7 | 13.0 | 0.00 | 0.00 | 0.00 | 100 | |
| 20260507054224 | 62 | 140 | 6.1 | 10.4 | 0.00 | 0.00 | 0.00 | 100 | |
| 20260507053724 | 62 | 139 | 5.2 | 9.6 | 0.00 | 0.00 | 0.00 | 100 | |
| 20260507053224 | 62 | 140 | 4.3 | 7.8 | 0.00 | 0.00 | 0.00 | 100 | |
| 20260507052723 | 61 | 142 | 3.5 | 3.5 | 0.00 | 0.00 | 0.00 | 100 | |
| 20260507052223 | 61 | 145 | 2.6 | 3.5 | 0.00 | 0.00 | 0.00 | 100 | |
| 20260507051720 | 62 | 151 | 5.2 | 8.7 | 0.00 | 0.00 | 0.00 | 100 | |
| 20260507051220 | 60 | 150 | 2.6 | 5.2 | 0.00 | 0.00 | 0.00 | 100 | |
| 20260507050719 | 61 | 144 | 1.7 | 2.6 | 0.00 | 0.00 | 0.00 | 100 | |
| 20260507050219 | 61 | 144 | 1.7 | 1.7 | 0.00 | 0.00 | 0.00 | 100 | |
| 20260507045719 | 60 | 144 | 1.7 | 1.7 | 0.00 | 0.00 | 0.00 | 100 | |
| 20260507044708 | 60 | 144 | 1.7 | 1.7 | 0.00 | 0.00 | 0.00 | 100 | |
| 20260507044208 | 60 | 144 | 1.7 | 1.7 | 0.00 | 0.00 | 0.00 | 100 | |
| 20260507043707 | 61 | 159 | 1.7 | 2.6 | 0.00 | 0.00 | 0.00 | 100 | |
| 20260507043206 | 60 | 161 | 1.7 | 3.5 | 0.00 | 0.00 | 0.00 | 100 | |
| 20260507042706 | 60 | 161 | 1.7 | 1.7 | 0.00 | 0.00 | 0.00 | 100 | |
| 20260507042206 | 60 | 161 | 1.7 | 1.7 | 0.00 | 0.00 | 0.00 | 100 | |
| 20260507041706 | 60 | 145 | 1.7 | 2.6 | 0.00 | 0.00 | 0.00 | 100 | |
| 20260507041205 | 61 | 224 | 1.7 | 2.6 | 0.00 | 0.00 | 0.00 | 100 | |
| 20260507040706 | 60 | 201 | 1.7 | 2.6 | 0.00 | 0.00 | 0.00 | 100 | |
| 20260507040205 | 61 | 105 | 2.6 | 3.5 | 0.00 | 0.00 | 0.00 | 100 | |
| 20260507035705 | 61 | 115 | 2.6 | 3.5 | 0.00 | 0.00 | 0.00 | 100 | |
| 20260507035205 | 60 | 99 | 1.7 | 3.5 | 0.00 | 0.00 | 0.00 | 100 | |
| 20260507034149 | 60 | 77 | 4.3 | 7.0 | 0.00 | 0.00 | 0.00 | 100 | |
| 20260507033647 | 61 | 122 | 3.5 | 7.0 | 0.00 | 0.00 | 0.00 | 100 | |
| 20260507033147 | 60 | 115 | 3.5 | 5.2 | 0.00 | 0.00 | 0.00 | 100 | |
| 20260507032643 | 60 | 121 | 1.7 | 3.5 | 0.00 | 0.00 | 0.00 | 100 | |
| 20260507032143 | 60 | 123 | 3.5 | 5.2 | 0.00 | 0.00 | 0.00 | 100 | |
| 20260507031643 | 60 | 123 | 3.5 | 5.2 | 0.00 | 0.00 | 0.00 | 100 | |
| 20260507031143 | 60 | 127 | 2.6 | 4.3 | 0.00 | 0.00 | 0.00 | 100 | |
| 20260507030643 | 60 | 140 | 1.7 | 3.5 | 0.00 | 0.00 | 0.00 | 100 | |
| 20260507030142 | 60 | 140 | 2.6 | 3.5 | 0.00 | 0.00 | 0.00 | 100 | |
| 20260507025642 | 60 | 141 | 3.5 | 7.8 | 0.00 | 0.00 | 0.00 | 100 | |
| 20260507025142 | 60 | 141 | 5.2 | 9.6 | 0.00 | 0.00 | 0.00 | 100 | |
| 20260507024642 | 60 | 145 | 5.2 | 8.7 | 0.00 | 0.00 | 0.00 | 100 | |
| 20260507023642 | 60 | 140 | 5.2 | 7.0 | 0.00 | 0.00 | 0.00 | 100 | |
| 20260507023141 | 60 | 140 | 6.1 | 7.8 | 0.00 | 0.00 | 0.00 | 100 | |
| 20260507022641 | 60 | 143 | 5.2 | 8.7 | 0.00 | 0.00 | 0.00 | 100 | |
| 20260507022141 | 61 | 138 | 5.2 | 6.1 | 0.00 | 0.00 | 0.00 | 100 | |
| 20260507021628 | 61 | 147 | 5.2 | 7.0 | 0.00 | 0.00 | 0.00 | 100 | |
| 20260507021128 | 61 | 151 | 6.1 | 8.7 | 0.00 | 0.00 | 0.00 | 100 | |
| 20260507020628 | 61 | 156 | 5.2 | 7.0 | 0.00 | 0.00 | 0.00 | 100 | |
| 20260507020127 | 61 | 148 | 5.2 | 7.8 | 0.00 | 0.00 | 0.00 | 100 | |
| 20260507015627 | 61 | 141 | 5.2 | 10.4 | 0.00 | 0.00 | 0.00 | 100 | |
| 20260507015127 | 61 | 140 | 4.3 | 7.8 | 0.00 | 0.00 | 0.00 | 100 | |
| 20260507014627 | 62 | 152 | 5.2 | 7.0 | 0.00 | 0.00 | 0.00 | 100 | |
| 20260507014126 | 61 | 155 | 5.2 | 7.0 | 0.00 | 0.00 | 0.00 | 100 | |
| 20260507013623 | 62 | 156 | 7.0 | 8.7 | 0.00 | 0.00 | 0.00 | 100 | |
| 20260507013123 | 62 | 152 | 5.2 | 7.8 | 0.00 | 0.00 | 0.00 | 100 |